Hourly Data Report for February 02, 2004

SHERBROOKE A
QUEBEC

45°26'00.000" N
71°41'00.000" W
241.40 m
7028124
71610
YSC

Download Data

Hourly Data (February 2004)
Hourly Data Report for February 2, 2004
TIME
LST
Temp Definition
°C
Dew Point Definition
°C
Rel Hum Definition
%
Precip. Amount Definition
mm

Wind Dir Definition
10's deg

Wind Spd Definition
km/h
Visibility Definition
km
Stn Press Definition
kPa
Hmdx Definition


Wind Chill Definition


Weather Definition


00:00 -8.2 -12.9 69     0 15.0 100.13      
01:00 -8.4 -12.5 72     0 15.0 100.16      
02:00 -8.5 -12.4 73     0 15.0 100.21      
03:00 -8.3 -12.9 69   24 6 15.0 100.24   -12 Snow
04:00 -8.2 -12.8 69   24 4 15.0 100.26   -10 Snow
05:00 -8.2 -12.8 69   24 6 15.0 100.30   -11  
06:00 -8.2 -12.6 71     0 15.0 100.34      
07:00 -8.4 -12.4 73     0 15.0 100.38      
08:00 -8.1 -12.5 71   23 4 19.3 100.44   -10 Snow
09:00 -7.5 -12.1 70     0 12.9 100.45     Snow
10:00 -7.2 -11.8 70   31 4 8.0 100.44   -9 Snow
11:00 -5.6 -10.8 67     0 16.1 100.41     Snow
12:00 -6.0 -11.9 63   27 4 19.3 100.35   -8 Snow
13:00 -5.1 -11.3 62   28 6 24.1 100.28   -8 Mostly Cloudy
14:00 -5.6 -12.0 61     0 24.1 100.21     Mainly Clear
15:00 -3.2 -11.4 53     0 24.1 100.18     Mainly Clear
16:00 -4.9 -12.3 56   28 4 24.1 100.17   -7 Mainly Clear
17:00 -7.5 -12.9 65   1 4 24.1 100.16   -10 Clear
18:00 -12.1 -15.6 75   14 6 15.0 100.15   -16  
19:00 -14.2 -17.1 79     0 15.0 100.13      
20:00 -13.0 -16.4 76   6 7 12.9 100.12   -18  
21:00 -13.7 -16.9 77   11 7 12.9 100.08   -18  
22:00 -14.9 -18.0 77   11 7 15.0 100.03   -20  
23:00 -14.0 -17.5 75   8 11 15.0 99.97   -20  

Notes on Data Quality.

Legend

  • E = Estimated
  • M = Missing
  • NA = Not Available*
  • [empty] = Indicates an unobserved value
Date modified: